Time,TemperatureF,DewpointF,PressureIn,WindDirection,WindDirectionDegrees,WindSpeedMPH,WindSpeedGustMPH,Humidity,HourlyPrecipIn,Conditions,Clouds,dailyrainin,SoftwareType,DateUTC
2015-07-30 00:02:00,77.0,75.1,29.97,WSW,238,1.2,0.0,94,0.00,RA,,0.00,WeatherDisplay:10.37,2015-07-30 04:02:00,
2015-07-30 00:06:00,77.0,75.1,29.97,WSW,238,3.0,3.0,94,0.00,RA,,0.00,WeatherDisplay:10.37,2015-07-30 04:06:00,
2015-07-30 00:11:00,77.0,75.1,29.96,WSW,238,4.6,4.6,94,0.00,,,0.00,WeatherDisplay:10.37,2015-07-30 04:11:00,
2015-07-30 00:16:00,76.9,75.0,29.96,WSW,238,1.2,0.0,94,0.00,CLR,,0.00,WeatherDisplay:10.37,2015-07-30 04:16:00,
2015-07-30 00:21:00,76.9,75.0,29.96,WSW,238,1.2,1.2,94,0.00,,,0.00,WeatherDisplay:10.37,2015-07-30 04:21:00,
2015-07-30 00:26:00,76.9,75.0,29.96,WSW,238,4.6,4.6,94,0.00,CLR,,0.00,WeatherDisplay:10.37,2015-07-30 04:26:00,
2015-07-30 00:31:00,76.9,75.4,29.96,WSW,238,0.0,0.0,95,0.00,,,0.00,WeatherDisplay:10.37,2015-07-30 04:31:00,
2015-07-30 00:37:00,76.9,75.4,29.96,WSW,238,3.5,3.5,95,0.00,CLR,,0.00,WeatherDisplay:10.37,2015-07-30 04:37:00,
2015-07-30 00:42:00,76.9,75.4,29.96,WSW,238,1.2,0.0,95,0.00,CLR,,0.00,WeatherDisplay:10.37,2015-07-30 04:42:00,
2015-07-30 00:47:00,76.9,75.4,29.96,WSW,238,3.5,3.5,95,0.00,CLR,,0.00,WeatherDisplay:10.37,2015-07-30 04:47:00,
2015-07-30 00:57:00,76.9,75.4,29.96,WSW,238,2.3,0.0,95,0.00,,,0.00,WeatherDisplay:10.37,2015-07-30 04:57:00,
2015-07-30 01:02:00,76.9,75.4,29.96,WSW,238,1.2,1.2,95,0.00,CLR,,0.00,WeatherDisplay:10.37,2015-07-30 05:02:00,
2015-07-30 01:07:00,76.9,75.4,29.96,WSW,238,3.5,3.5,95,0.00,,,0.00,WeatherDisplay:10.37,2015-07-30 05:07:00,
2015-07-30 01:12:00,77.0,75.5,29.95,WSW,238,5.0,5.0,95,0.00,CLR,,0.00,WeatherDisplay:10.37,2015-07-30 05:12:00,
2015-07-30 01:17:00,77.0,75.5,29.95,WSW,238,4.0,4.0,95,0.00,,,0.00,WeatherDisplay:10.37,2015-07-30 05:17:00,
2015-07-30 01:22:00,77.0,75.5,29.95,WSW,238,4.6,4.6,95,0.00,CLR,,0.00,WeatherDisplay:10.37,2015-07-30 05:22:00,
2015-07-30 01:27:00,77.0,75.5,29.95,WSW,238,5.0,5.0,95,0.00,,,0.00,WeatherDisplay:10.37,2015-07-30 05:27:00,
2015-07-30 01:32:00,77.0,75.5,29.94,WSW,238,3.5,3.5,95,0.00,CLR,,0.00,WeatherDisplay:10.37,2015-07-30 05:32:00,
2015-07-30 01:42:00,77.0,75.5,29.95,WSW,238,6.9,6.9,95,0.00,CLR,,0.00,WeatherDisplay:10.37,2015-07-30 05:42:00,
2015-07-30 01:47:00,77.1,75.6,29.95,WSW,238,4.0,4.0,95,0.00,,,0.00,WeatherDisplay:10.37,2015-07-30 05:47:00,
2015-07-30 01:52:00,77.1,75.2,29.94,WSW,238,5.8,5.8,94,0.00,CLR,,0.00,WeatherDisplay:10.37,2015-07-30 05:52:00,
2015-07-30 01:57:00,77.1,75.2,29.95,WSW,238,4.6,4.6,94,0.00,,,0.00,WeatherDisplay:10.37,2015-07-30 05:57:00,
2015-07-30 02:07:00,77.1,75.2,29.94,WSW,237,4.6,4.6,94,0.00,,,0.00,WeatherDisplay:10.37,2015-07-30 06:07:00,
2015-07-30 02:17:00,77.1,75.2,29.94,WSW,237,0.0,0.1,94,0.00,,,0.00,WeatherDisplay:10.37,2015-07-30 06:17:00,
2015-07-30 02:22:00,77.1,75.2,29.94,WSW,237,3.5,3.5,94,0.00,CLR,,0.00,WeatherDisplay:10.37,2015-07-30 06:22:00,
2015-07-30 02:27:00,77.1,75.2,29.94,WSW,237,3.5,3.5,94,0.00,,,0.00,WeatherDisplay:10.37,2015-07-30 06:27:00,
2015-07-30 02:33:00,77.1,74.9,29.94,WSW,237,4.0,4.0,93,0.00,CLR,,0.00,WeatherDisplay:10.37,2015-07-30 06:33:00,
2015-07-30 02:43:00,77.1,74.9,29.95,WSW,237,3.5,3.5,93,0.00,CLR,,0.00,WeatherDisplay:10.37,2015-07-30 06:43:00,
2015-07-30 02:48:00,77.1,74.9,29.95,WSW,237,3.5,3.5,93,0.00,,,0.00,WeatherDisplay:10.37,2015-07-30 06:48:00,
2015-07-30 02:53:00,77.1,74.9,29.95,WSW,237,3.5,3.5,93,0.00,CLR,,0.00,WeatherDisplay:10.37,2015-07-30 06:53:00,
2015-07-30 03:03:00,77.1,74.9,29.94,WSW,237,4.0,4.0,93,0.00,,,0.00,WeatherDisplay:10.37,2015-07-30 07:03:00,
2015-07-30 03:08:00,77.1,74.9,29.94,WSW,237,4.6,4.6,93,0.00,CLR,,0.00,WeatherDisplay:10.37,2015-07-30 07:08:00,
2015-07-30 03:13:00,77.1,74.9,29.94,WSW,237,4.0,4.0,93,0.00,,,0.00,WeatherDisplay:10.37,2015-07-30 07:13:00,
2015-07-30 03:18:00,77.0,74.8,29.94,WSW,237,2.3,2.3,93,0.00,CLR,,0.00,WeatherDisplay:10.37,2015-07-30 07:18:00,
2015-07-30 03:23:00,77.0,74.8,29.94,WSW,237,3.5,3.5,93,0.00,,,0.00,WeatherDisplay:10.37,2015-07-30 07:23:00,
2015-07-30 03:28:00,77.0,74.8,29.94,WSW,237,4.6,4.6,93,0.00,CLR,,0.00,WeatherDisplay:10.37,2015-07-30 07:28:00,
2015-07-30 03:33:00,77.1,74.9,29.93,WSW,238,6.9,6.9,93,0.00,,,0.00,WeatherDisplay:10.37,2015-07-30 07:33:00,
2015-07-30 03:38:00,77.1,74.9,29.93,WSW,238,5.8,5.8,93,0.00,CLR,,0.00,WeatherDisplay:10.37,2015-07-30 07:38:00,
2015-07-30 03:43:00,77.1,74.9,29.93,WSW,239,3.5,3.5,93,0.00,,,0.00,WeatherDisplay:10.37,2015-07-30 07:43:00,
2015-07-30 03:48:00,77.1,74.9,29.93,WSW,240,5.8,5.8,93,0.00,CLR,,0.00,WeatherDisplay:10.37,2015-07-30 07:48:00,
2015-07-30 03:53:00,77.1,74.9,29.93,WSW,242,4.6,4.6,93,0.00,,,0.00,WeatherDisplay:10.37,2015-07-30 07:53:00,
2015-07-30 03:58:00,77.2,75.0,29.93,WSW,244,3.5,3.5,93,0.00,CLR,,0.00,WeatherDisplay:10.37,2015-07-30 07:58:00,
2015-07-30 04:03:00,77.2,75.0,29.93,WSW,244,3.5,3.5,93,0.00,,,0.00,WeatherDisplay:10.37,2015-07-30 08:03:00,
2015-07-30 04:08:00,77.1,74.9,29.93,WSW,244,4.0,4.0,93,0.00,CLR,,0.00,WeatherDisplay:10.37,2015-07-30 08:08:00,
2015-07-30 04:13:00,77.1,74.9,29.93,WSW,242,4.6,4.6,93,0.00,,,0.00,WeatherDisplay:10.37,2015-07-30 08:13:00,
2015-07-30 04:18:00,77.0,74.8,29.93,WSW,242,3.5,3.5,93,0.00,CLR,,0.00,WeatherDisplay:10.37,2015-07-30 08:18:00,
2015-07-30 04:23:00,77.0,74.8,29.93,WSW,241,4.6,4.6,93,0.00,,,0.00,WeatherDisplay:10.37,2015-07-30 08:23:00,
2015-07-30 04:28:00,76.9,74.7,29.94,WSW,241,4.6,4.6,93,0.00,CLR,,0.00,WeatherDisplay:10.37,2015-07-30 08:28:00,
2015-07-30 04:33:00,76.9,74.7,29.94,WSW,241,3.5,3.5,93,0.00,,,0.00,WeatherDisplay:10.37,2015-07-30 08:33:00,
2015-07-30 04:38:00,76.9,74.7,29.94,WSW,241,3.5,3.5,93,0.00,CLR,,0.00,WeatherDisplay:10.37,2015-07-30 08:38:00,
2015-07-30 04:43:00,76.9,74.7,29.93,WSW,240,5.0,5.0,93,0.00,,,0.00,WeatherDisplay:10.37,2015-07-30 08:43:00,
2015-07-30 04:48:00,76.8,74.6,29.94,WSW,238,6.0,6.0,93,0.00,CLR,,0.00,WeatherDisplay:10.37,2015-07-30 08:48:00,
2015-07-30 04:53:00,76.8,74.6,29.93,WSW,237,5.8,5.8,93,0.00,,,0.00,WeatherDisplay:10.37,2015-07-30 08:53:00,
2015-07-30 05:03:00,76.8,74.6,29.93,WSW,237,3.5,3.5,93,0.00,,,0.00,WeatherDisplay:10.37,2015-07-30 09:03:00,
2015-07-30 05:08:00,76.8,74.6,29.93,WSW,237,3.5,3.5,93,0.00,CLR,,0.00,WeatherDisplay:10.37,2015-07-30 09:08:00,
2015-07-30 05:13:00,76.8,74.6,29.93,WSW,237,0.0,0.0,93,0.00,,,0.00,WeatherDisplay:10.37,2015-07-30 09:13:00,
2015-07-30 05:18:00,76.8,74.6,29.93,WSW,237,4.6,4.6,93,0.00,CLR,,0.00,WeatherDisplay:10.37,2015-07-30 09:18:00,
2015-07-30 05:23:00,76.8,74.6,29.93,WSW,237,4.6,4.6,93,0.00,,,0.00,WeatherDisplay:10.37,2015-07-30 09:23:00,
2015-07-30 05:28:00,76.7,74.5,29.93,WSW,237,5.8,5.8,93,0.00,CLR,,0.00,WeatherDisplay:10.37,2015-07-30 09:28:00,
2015-07-30 05:33:00,76.7,74.5,29.93,WSW,237,4.6,4.6,93,0.00,,,0.00,WeatherDisplay:10.37,2015-07-30 09:33:00,
2015-07-30 05:38:00,76.7,74.5,29.93,WSW,237,5.0,5.0,93,0.00,CLR,,0.00,WeatherDisplay:10.37,2015-07-30 09:38:00,
2015-07-30 05:43:00,76.7,74.5,29.94,WSW,237,3.5,3.5,93,0.00,,,0.00,WeatherDisplay:10.37,2015-07-30 09:43:00,
2015-07-30 05:49:00,76.7,74.5,29.94,WSW,237,3.5,3.5,93,0.00,CLR,,0.00,WeatherDisplay:10.37,2015-07-30 09:49:00,
2015-07-30 05:54:00,76.7,74.5,29.94,WSW,237,3.5,3.5,93,0.00,,,0.00,WeatherDisplay:10.37,2015-07-30 09:54:00,
2015-07-30 05:59:00,76.7,74.5,29.94,WSW,237,5.0,5.0,93,0.00,,,0.00,WeatherDisplay:10.37,2015-07-30 09:59:00,
2015-07-30 06:04:00,76.7,74.5,29.94,WSW,237,3.5,3.5,93,0.00,CLR,,0.00,WeatherDisplay:10.37,2015-07-30 10:04:00,
2015-07-30 06:09:00,76.7,74.5,29.94,WSW,237,4.0,4.0,93,0.00,,,0.00,WeatherDisplay:10.37,2015-07-30 10:09:00,
2015-07-30 06:14:00,76.7,74.5,29.93,WSW,237,3.5,3.5,93,0.00,CLR,,0.00,WeatherDisplay:10.37,2015-07-30 10:14:00,
2015-07-30 06:19:00,76.7,74.8,29.93,WSW,237,2.3,2.3,94,0.00,,,0.00,WeatherDisplay:10.37,2015-07-30 10:19:00,
2015-07-30 06:24:00,76.7,74.8,29.94,WSW,237,3.5,3.5,94,0.00,,,0.00,WeatherDisplay:10.37,2015-07-30 10:24:00,
2015-07-30 06:29:00,76.7,74.8,29.94,WSW,237,4.0,4.0,94,0.00,,,0.00,WeatherDisplay:10.37,2015-07-30 10:29:00,
2015-07-30 06:34:00,76.7,74.8,29.94,WSW,237,3.5,3.5,94,0.00,,,0.00,WeatherDisplay:10.37,2015-07-30 10:34:00,
2015-07-30 06:39:00,76.7,74.8,29.94,WSW,237,3.5,3.5,94,0.00,,,0.00,WeatherDisplay:10.37,2015-07-30 10:39:00,
2015-07-30 06:44:00,76.7,74.8,29.94,WSW,237,0.0,0.0,94,0.00,,,0.00,WeatherDisplay:10.37,2015-07-30 10:44:00,
2015-07-30 06:49:00,76.6,74.7,29.95,WSW,237,3.0,3.0,94,0.00,,,0.00,WeatherDisplay:10.37,2015-07-30 10:49:00,
2015-07-30 06:54:00,76.6,74.7,29.95,WSW,237,0.0,0.0,94,0.00,,,0.00,WeatherDisplay:10.37,2015-07-30 10:54:00,
2015-07-30 06:59:00,76.6,74.7,29.95,WSW,237,3.0,3.0,94,0.00,,,0.00,WeatherDisplay:10.37,2015-07-30 10:59:00,
2015-07-30 07:04:00,76.6,74.7,29.95,WSW,237,0.0,0.0,94,0.00,,,0.00,WeatherDisplay:10.37,2015-07-30 11:04:00,
2015-07-30 07:09:00,76.6,74.7,29.95,WSW,237,0.0,0.0,94,0.00,,,0.00,WeatherDisplay:10.37,2015-07-30 11:09:00,
2015-07-30 07:14:00,76.6,74.7,29.95,WSW,237,2.0,2.0,94,0.00,,,0.00,WeatherDisplay:10.37,2015-07-30 11:14:00,
2015-07-30 07:19:00,76.6,74.7,29.95,WSW,237,3.5,3.5,94,0.00,,,0.00,WeatherDisplay:10.37,2015-07-30 11:19:00,
2015-07-30 07:24:00,76.6,74.7,29.95,WSW,237,3.5,3.5,94,0.00,,,0.00,WeatherDisplay:10.37,2015-07-30 11:24:00,
2015-07-30 07:29:00,76.7,74.8,29.96,WSW,237,0.0,0.0,94,0.00,,,0.00,WeatherDisplay:10.37,2015-07-30 11:29:00,
2015-07-30 07:34:00,76.7,74.8,29.96,WSW,237,1.2,1.2,94,0.00,,,0.00,WeatherDisplay:10.37,2015-07-30 11:34:00,
2015-07-30 07:40:00,76.8,74.9,29.96,WSW,237,3.5,3.5,94,0.00,,,0.00,WeatherDisplay:10.37,2015-07-30 11:40:00,
2015-07-30 07:45:00,76.9,75.0,29.96,WSW,237,4.0,4.0,94,0.00,,,0.00,WeatherDisplay:10.37,2015-07-30 11:45:00,
2015-07-30 07:50:00,77.0,75.1,29.96,WSW,237,3.5,3.5,94,0.00,,,0.00,WeatherDisplay:10.37,2015-07-30 11:50:00,
2015-07-30 07:55:00,77.2,75.3,29.96,WSW,237,3.5,3.5,94,0.00,,,0.00,WeatherDisplay:10.37,2015-07-30 11:55:00,
2015-07-30 08:00:00,77.4,75.5,29.96,WSW,237,3.5,3.5,94,0.00,,,0.00,WeatherDisplay:10.37,2015-07-30 12:00:00,
2015-07-30 08:05:00,77.5,75.6,29.96,WSW,237,3.5,3.5,94,0.00,,,0.00,WeatherDisplay:10.37,2015-07-30 12:05:00,
2015-07-30 08:10:00,77.8,75.9,29.96,WSW,237,2.3,2.3,94,0.00,,,0.00,WeatherDisplay:10.37,2015-07-30 12:10:00,
2015-07-30 08:15:00,78.0,76.1,29.97,WSW,237,1.2,1.2,94,0.00,,,0.00,WeatherDisplay:10.37,2015-07-30 12:15:00,
2015-07-30 08:20:00,78.1,75.9,29.97,SW,232,3.5,3.5,93,0.00,,,0.00,WeatherDisplay:10.37,2015-07-30 12:20:00,
2015-07-30 08:25:00,78.2,76.0,29.97,SW,232,5.8,5.8,93,0.00,,,0.00,WeatherDisplay:10.37,2015-07-30 12:25:00,
2015-07-30 08:30:00,78.3,76.1,29.97,SW,231,4.6,4.6,93,0.00,,,0.00,WeatherDisplay:10.37,2015-07-30 12:30:00,
2015-07-30 08:35:00,78.5,76.3,29.97,SW,231,1.2,1.2,93,0.00,,,0.00,WeatherDisplay:10.37,2015-07-30 12:35:00,
2015-07-30 08:40:00,78.6,76.1,29.98,SW,231,3.5,3.5,92,0.00,,,0.00,WeatherDisplay:10.37,2015-07-30 12:40:00,
2015-07-30 08:45:00,78.9,76.4,29.98,SW,231,3.5,3.5,92,0.00,,,0.00,WeatherDisplay:10.37,2015-07-30 12:45:00,
2015-07-30 08:50:00,79.2,76.7,29.98,SW,231,3.5,3.5,92,0.00,,,0.00,WeatherDisplay:10.37,2015-07-30 12:50:00,
2015-07-30 08:55:00,79.5,76.6,29.98,SW,232,4.6,4.6,91,0.00,,,0.00,WeatherDisplay:10.37,2015-07-30 12:55:00,
2015-07-30 09:00:00,79.9,76.7,29.98,SW,232,5.0,5.0,90,0.00,,,0.00,WeatherDisplay:10.37,2015-07-30 13:00:00,
2015-07-30 09:05:00,80.4,76.9,29.98,WSW,246,6.9,6.9,89,0.00,,,0.00,WeatherDisplay:10.37,2015-07-30 13:05:00,
2015-07-30 09:10:00,80.7,76.8,29.98,WSW,249,5.8,5.8,88,0.00,,,0.00,WeatherDisplay:10.37,2015-07-30 13:10:00,
2015-07-30 09:15:00,81.2,77.0,29.98,WSW,246,11.0,11.0,87,0.00,,,0.00,WeatherDisplay:10.37,2015-07-30 13:15:00,
2015-07-30 09:20:00,81.5,76.9,29.98,WSW,244,9.2,9.2,86,0.00,,,0.00,WeatherDisplay:10.37,2015-07-30 13:20:00,
2015-07-30 09:25:00,81.8,76.8,29.98,WSW,257,11.5,11.5,85,0.00,,,0.00,WeatherDisplay:10.37,2015-07-30 13:25:00,
2015-07-30 09:30:00,82.0,77.0,29.98,WSW,254,4.6,4.6,85,0.00,,,0.00,WeatherDisplay:10.37,2015-07-30 13:30:00,
2015-07-30 09:35:00,82.3,77.3,29.98,West,272,3.5,3.5,85,0.00,,,0.00,WeatherDisplay:10.37,2015-07-30 13:35:00,
2015-07-30 09:40:00,82.4,77.4,29.98,WSW,257,13.8,13.8,85,0.00,,,0.00,WeatherDisplay:10.37,2015-07-30 13:40:00,
2015-07-30 09:45:00,82.5,76.8,29.98,West,265,11.5,11.5,83,0.00,,,0.00,WeatherDisplay:10.37,2015-07-30 13:45:00,
2015-07-30 09:56:00,83.1,77.0,29.98,West,269,5.8,5.8,82,0.00,,,0.00,WeatherDisplay:10.37,2015-07-30 13:56:00,
2015-07-30 10:06:00,83.0,76.6,29.98,WSW,256,11.5,11.5,81,0.00,,,0.00,WeatherDisplay:10.37,2015-07-30 14:06:00,
2015-07-30 10:11:00,83.0,76.9,29.98,WNW,285,6.0,6.0,82,0.00,,,0.00,WeatherDisplay:10.37,2015-07-30 14:11:00,
2015-07-30 10:16:00,83.1,76.7,29.98,WSW,247,9.2,9.2,81,0.00,,,0.00,WeatherDisplay:10.37,2015-07-30 14:16:00,
2015-07-30 10:21:00,83.4,76.6,29.99,WSW,244,11.5,11.5,80,0.00,,,0.00,WeatherDisplay:10.37,2015-07-30 14:21:00,
2015-07-30 10:26:00,83.7,76.5,29.99,WSW,254,11.5,11.5,79,0.00,,,0.00,WeatherDisplay:10.37,2015-07-30 14:26:00,
2015-07-30 10:31:00,83.6,76.4,29.98,West,277,10.4,10.4,79,0.00,,,0.00,WeatherDisplay:10.37,2015-07-30 14:31:00,
2015-07-30 10:36:00,83.4,76.6,29.98,SW,227,10.4,10.4,80,0.00,,,0.00,WeatherDisplay:10.37,2015-07-30 14:36:00,
2015-07-30 10:41:00,83.4,76.6,29.98,WSW,251,6.9,6.9,80,0.00,,,0.00,WeatherDisplay:10.37,2015-07-30 14:41:00,
2015-07-30 10:46:00,83.6,76.8,29.98,West,263,4.6,4.6,80,0.00,,,0.00,WeatherDisplay:10.37,2015-07-30 14:46:00,
2015-07-30 10:51:00,83.8,76.6,29.98,WSW,254,8.0,8.0,79,0.00,,,0.00,WeatherDisplay:10.37,2015-07-30 14:51:00,
2015-07-30 10:56:00,83.9,76.3,29.98,West,271,9.2,9.2,78,0.00,,,0.00,WeatherDisplay:10.37,2015-07-30 14:56:00,
2015-07-30 11:01:00,84.3,76.3,29.98,West,275,10.4,10.4,77,0.00,,,0.00,WeatherDisplay:10.37,2015-07-30 15:01:00,
2015-07-30 11:06:00,84.8,77.2,29.98,West,270,4.6,0.0,78,0.00,,,0.00,WeatherDisplay:10.37,2015-07-30 15:06:00,
2015-07-30 11:11:00,85.6,77.6,29.98,West,279,11.0,11.0,77,0.00,,,0.00,WeatherDisplay:10.37,2015-07-30 15:11:00,
2015-07-30 11:16:00,85.9,76.2,29.98,WNW,291,11.5,11.5,73,0.00,,,0.00,WeatherDisplay:10.37,2015-07-30 15:16:00,